| time (UTC) | temp F | wind direction | speed knots | gust knots | rain 1hr in | rain 24hr in | rain mn in | humidity % | barometer mb |
| 20260505124606 | 48 | 138 | 2.6 | 8.7 | 0.12 | 0.30 | 0.30 | 99 | 1012.0 |
| 20260505123058 | 48 | 115 | 5.2 | 10.4 | 0.09 | 0.27 | 0.27 | 98 | 1011.9 |
| 20260505121549 | 49 | 100 | 1.7 | 4.3 | 0.05 | 0.23 | 0.23 | 98 | 1011.7 |
| 20260505120100 | 49 | 76 | 0.0 | 1.7 | 0.00 | 0.18 | 0.18 | 98 | 1011.2 |
| 20260505114545 | 49 | 0 | 0.0 | 1.7 | 0.01 | 0.18 | 0.18 | 97 | 1011.0 |
| 20260505113054 | 48 | 197 | 1.7 | 5.2 | 0.01 | 0.18 | 0.18 | 97 | 1010.8 |
| 20260505111549 | 49 | 180 | 0.0 | 1.7 | 0.02 | 0.18 | 0.18 | 97 | 1011.1 |
| 20260505101549 | 48 | 230 | 2.6 | 5.2 | 0.04 | 0.16 | 0.16 | 96 | 1011.0 |
| 20260505100050 | 48 | 232 | 4.3 | 11.3 | 0.06 | 0.16 | 0.16 | 96 | 1010.9 |
| 20260505094549 | 48 | 235 | 3.5 | 8.7 | 0.05 | 0.15 | 0.15 | 96 | 1011.0 |
| 20260505093103 | 48 | 245 | 5.2 | 10.4 | 0.04 | 0.13 | 0.13 | 96 | 1011.3 |
| 20260505091550 | 48 | 242 | 5.2 | 9.6 | 0.05 | 0.12 | 0.12 | 96 | 1011.2 |
| 20260505090050 | 49 | 290 | 3.5 | 7.8 | 0.06 | 0.10 | 0.10 | 96 | 1011.3 |
| 20260505084554 | 49 | 211 | 2.6 | 6.1 | 0.09 | 0.10 | 0.10 | 96 | 1010.7 |
| 20260505083054 | 48 | 225 | 5.2 | 9.6 | 0.08 | 0.09 | 0.09 | 95 | 1010.7 |
| 20260505081551 | 49 | 213 | 3.5 | 7.0 | 0.07 | 0.07 | 0.07 | 94 | 1011.5 |
| 20260505080054 | 49 | 239 | 3.5 | 7.8 | 0.04 | 0.04 | 0.04 | 91 | 1011.8 |
| 20260505074551 | 50 | 257 | 0.9 | 4.3 | 0.01 | 0.01 | 0.01 | 87 | 1011.9 |
| 20260505073051 | 51 | 0 | 0.0 | 2.6 | 0.01 | 0.01 | 0.01 | 83 | 1011.9 |
| 20260505071543 | 51 | 175 | 0.9 | 7.8 | 0.00 | 0.00 | 0.00 | 80 | 1011.6 |
| 20260505070045 | 52 | 233 | 6.1 | 11.3 | 0.00 | 0.00 | 0.00 | 77 | 1010.9 |
| 20260505064554 | 52 | 255 | 4.3 | 8.7 | 0.00 | 0.00 | 0.00 | 75 | 1011.0 |
| 20260505063046 | 52 | 201 | 1.7 | 8.7 | 0.00 | 0.00 | 0.00 | 73 | 1011.1 |
| 20260505061543 | 53 | 163 | 3.5 | 9.6 | 0.00 | 0.00 | 0.00 | 72 | 1011.1 |
| 20260505060042 | 52 | 0 | 0.0 | 2.6 | 0.00 | 0.00 | 0.00 | 73 | 1011.1 |
| 20260505054543 | 52 | 191 | 4.3 | 10.4 | 0.00 | 0.00 | 0.00 | 72 | 1010.8 |
| 20260505053105 | 52 | 131 | 0.9 | 6.1 | 0.00 | 0.00 | 0.00 | 75 | 1011.1 |
| 20260505051546 | 53 | 192 | 3.5 | 11.3 | 0.00 | 0.00 | 0.00 | 72 | 1010.9 |
| 20260505041546 | 53 | 249 | 7.0 | 13.0 | 0.00 | 0.00 | 0.00 | 74 | 1010.6 |
| 20260505040050 | 53 | 239 | 7.0 | 13.9 | 0.00 | 0.00 | 0.00 | 77 | 1010.4 |
| 20260505034557 | 53 | 214 | 10.4 | 15.6 | 0.00 | 0.00 | 0.00 | 76 | 1010.3 |
| 20260505033051 | 54 | 213 | 10.4 | 16.5 | 0.00 | 0.00 | 0.00 | 73 | 1010.5 |
| 20260505031541 | 54 | 236 | 6.1 | 15.6 | 0.00 | 0.00 | 0.00 | 73 | 1010.4 |
| 20260505030051 | 54 | 261 | 10.4 | 17.4 | 0.00 | 0.00 | 0.00 | 73 | 1010.2 |
| 20260505024544 | 54 | 247 | 12.2 | 19.1 | 0.00 | 0.00 | 0.00 | 72 | 1010.4 |
| 20260505023048 | 55 | 271 | 9.6 | 17.4 | 0.00 | 0.00 | 0.00 | 71 | 1010.6 |
| 20260505021551 | 55 | 247 | 9.6 | 13.9 | 0.00 | 0.00 | 0.00 | 72 | 1010.3 |
| 20260505020043 | 55 | 253 | 9.6 | 14.8 | 0.00 | 0.00 | 0.00 | 71 | 1010.1 |
| 20260505014549 | 56 | 244 | 7.0 | 14.8 | 0.00 | 0.00 | 0.00 | 70 | 1010.2 |
| 20260505013047 | 56 | 198 | 9.6 | 18.2 | 0.00 | 0.00 | 0.00 | 64 | 1010.1 |
| 20260505011605 | 57 | 215 | 9.6 | 18.2 | 0.00 | 0.00 | 0.00 | 63 | 1009.9 |
| 20260505010049 | 57 | 227 | 14.8 | 20.9 | 0.00 | 0.00 | 0.00 | 63 | 1009.5 |
| 20260505004541 | 60 | 192 | 7.8 | 16.5 | 0.00 | 0.00 | 0.00 | 58 | 1010.4 |
| 20260505003038 | 60 | 216 | 7.0 | 11.3 | 0.00 | 0.00 | 0.00 | 58 | 1009.9 |
| 20260505001538 | 60 | 184 | 3.5 | 6.1 | 0.00 | 0.00 | 0.00 | 59 | 1010.3 |
| 20260505000046 | 59 | 161 | 4.3 | 11.3 | 0.00 | 0.00 | 0.00 | 60 | 1010.2 |
| 20260504234544 | 59 | 138 | 7.0 | 13.9 | 0.00 | 0.00 | 0.00 | 62 | 1010.2 |
| 20260504233057 | 57 | 106 | 8.7 | 15.6 | 0.00 | 0.00 | 0.00 | 64 | 1010.3 |
| 20260504231549 | 57 | 136 | 5.2 | 15.6 | 0.00 | 0.00 | 0.00 | 66 | 1010.4 |
| 20260504230040 | 57 | 155 | 12.2 | 22.6 | 0.00 | 0.00 | 0.00 | 65 | 1010.4 |
| 20260504224544 | 60 | 141 | 15.6 | 26.1 | 0.00 | 0.00 | 0.00 | 56 | 1010.1 |
| 20260504223047 | 65 | 126 | 6.1 | 12.2 | 0.00 | 0.00 | 0.00 | 48 | 1009.9 |
| 20260504221544 | 65 | 227 | 7.8 | 12.2 | 0.00 | 0.00 | 0.00 | 51 | 1009.7 |
| 20260504220043 | 66 | 252 | 10.4 | 16.5 | 0.00 | 0.00 | 0.00 | 52 | 1009.5 |
| 20260504214538 | 64 | 246 | 10.4 | 15.6 | 0.00 | 0.00 | 0.00 | 56 | 1009.6 |
| 20260504213049 | 62 | 250 | 8.7 | 18.2 | 0.00 | 0.00 | 0.00 | 54 | 1009.7 |
| 20260504211546 | 61 | 255 | 13.0 | 19.1 | 0.00 | 0.00 | 0.00 | 64 | 1009.6 |
| 20260504210043 | 61 | 259 | 7.0 | 14.8 | 0.00 | 0.00 | 0.00 | 70 | 1009.9 |
| 20260504204540 | 59 | 266 | 6.1 | 12.2 | 0.00 | 0.00 | 0.00 | 67 | 1010.2 |
| 20260504203047 | 60 | 284 | 3.5 | 7.0 | 0.00 | 0.00 | 0.00 | 62 | 1010.3 |
| 20260504201549 | 59 | 296 | 2.6 | 7.0 | 0.00 | 0.00 | 0.00 | 61 | 1010.6 |
| 20260504200046 | 58 | 291 | 1.7 | 6.1 | 0.00 | 0.00 | 0.00 | 68 | 1010.8 |
| 20260504194601 | 57 | 22 | 2.6 | 13.0 | 0.00 | 0.00 | 0.00 | 63 | 1011.0 |
| 20260504193056 | 58 | 205 | 5.2 | 9.6 | 0.00 | 0.00 | 0.00 | 63 | 1011.4 |
| 20260504191605 | 58 | 219 | 5.2 | 12.2 | 0.00 | 0.00 | 0.00 | 63 | 1011.2 |
| 20260504190049 | 57 | 223 | 6.1 | 11.3 | 0.00 | 0.00 | 0.00 | 65 | 1011.5 |
| 20260504184549 | 57 | 204 | 6.1 | 13.9 | 0.00 | 0.00 | 0.00 | 64 | 1011.6 |
| 20260504183045 | 58 | 142 | 9.6 | 14.8 | 0.00 | 0.00 | 0.00 | 66 | 1011.8 |
| 20260504181551 | 58 | 171 | 7.0 | 13.0 | 0.00 | 0.00 | 0.00 | 64 | 1011.9 |
| 20260504180047 | 59 | 152 | 9.6 | 13.9 | 0.00 | 0.00 | 0.00 | 60 | 1011.8 |
| 20260504174551 | 61 | 179 | 3.5 | 9.6 | 0.00 | 0.00 | 0.00 | 54 | 1011.6 |
| 20260504173049 | 61 | 183 | 2.6 | 7.8 | 0.00 | 0.00 | 0.00 | 55 | 1011.3 |
| 20260504171554 | 60 | 263 | 0.9 | 3.5 | 0.00 | 0.00 | 0.00 | 55 | 1011.2 |